UAE209 OMDB-LGAV

Flight info

Callsign UAE209
Flight time N/A
Altitude 36000
Route RIDAP M557 TUMAK L602 GADSI M703 ANBAR DCT RAPLU G202 TAN R655 LEBOR UR655 BALMA DCT EVENO UM601 RDS UL995 USINI DCT AKINA UL995 PIDAX L995 VARIX
Aircraft B77W/H-SDE1E2E3FGHIJ2J3J4J5M1RWXY/LB1D1

Departure

Time 2026-04-23 12:25
Airport Dubai International Airport (OMDB)

Arrival

Time N/A
Airport Athens Eleftherios Venizelos International Airport (LGAV)
Time Latitude Longitude Altitude Speed Heading
2026-04-23 11:58 25.24136 55.37562 31 ft 0 kts 301°
2026-04-23 12:05 25.24133 55.37567 26 ft 0 kts 301°
2026-04-23 12:10 25.24133 55.37568 26 ft 2 kts 301°
2026-04-23 12:10 25.24120 55.37591 32 ft 4 kts 301°
2026-04-23 12:10 25.24106 55.37616 32 ft 4 kts 310°
2026-04-23 12:11 25.24088 55.37633 32 ft 4 kts 338°
2026-04-23 12:11 25.24070 55.37637 32 ft 4 kts 17°
2026-04-23 12:11 25.24053 55.37628 33 ft 4 kts 31°
2026-04-23 12:11 25.24032 55.37614 32 ft 1 kts 31°
2026-04-23 12:12 25.24031 55.37614 31 ft 0 kts 31°
2026-04-23 12:15 25.24034 55.37615 31 ft 4 kts 31°
2026-04-23 12:15 25.24100 55.37659 33 ft 13 kts 31°
2026-04-23 12:15 25.24171 55.37707 30 ft 0 kts 31°
2026-04-23 12:17 25.24193 55.37722 26 ft 8 kts 32°
2026-04-23 12:17 25.24210 55.37805 27 ft 22 kts 106°
2026-04-23 12:17 25.24120 55.37967 27 ft 18 kts 123°
2026-04-23 12:17 25.24107 55.37991 27 ft 0 kts 118°
2026-04-23 12:18 25.24105 55.37994 27 ft 4 kts 118°
2026-04-23 12:18 25.23954 55.38268 26 ft 14 kts 122°
2026-04-23 12:18 25.23912 55.38339 26 ft 0 kts 117°
2026-04-23 12:19 25.23906 55.38351 26 ft 7 kts 119°
2026-04-23 12:19 25.23870 55.38419 26 ft 12 kts 121°
2026-04-23 12:19 25.23880 55.38505 27 ft 14 kts 44°
2026-04-23 12:19 25.23944 55.38556 29 ft 0 kts 31°
2026-04-23 12:20 25.23948 55.38559 29 ft 5 kts 32°
2026-04-23 12:20 25.24010 55.38601 33 ft 12 kts 31°
2026-04-23 12:20 25.24126 55.38679 33 ft 29 kts 32°
2026-04-23 12:21 25.24251 55.38649 29 ft 23 kts 304°
2026-04-23 12:21 25.24384 55.38411 29 ft 46 kts 302°
2026-04-23 12:21 25.24528 55.38154 29 ft 22 kts 302°
2026-04-23 12:21 25.24596 55.38058 30 ft 16 kts 333°
2026-04-23 12:22 25.24636 55.38057 30 ft 0 kts 14°
2026-04-23 12:22 25.24639 55.38058 30 ft 4 kts 15°
2026-04-23 12:23 25.24702 55.38092 33 ft 12 kts 29°
2026-04-23 12:23 25.24782 55.38072 35 ft 16 kts 306°
2026-04-23 12:23 25.24789 55.38059 35 ft 0 kts 301°
2026-04-23 12:24 25.24814 55.38015 34 ft 24 kts 301°
2026-04-23 12:25 25.25042 55.37602 36 ft 101 kts 301°
2026-04-23 12:25 25.25529 55.36723 35 ft 165 kts 301°
2026-04-23 12:25 25.26190 55.35539 386 ft 181 kts 303°
2026-04-23 12:25 25.26837 55.34388 1205 ft 180 kts 307°
2026-04-23 12:26 25.27519 55.33184 1754 ft 187 kts 305°
2026-04-23 12:26 25.28187 55.31939 2449 ft 192 kts 295°
2026-04-23 12:26 25.28521 55.30425 2786 ft 218 kts 280°
2026-04-23 12:26 25.28774 55.28645 3525 ft 251 kts 278°
2026-04-23 12:27 25.29061 55.26675 4741 ft 271 kts 277°
2026-04-23 12:27 25.29383 55.24497 5621 ft 305 kts 277°
2026-04-23 12:27 25.29756 55.22035 6240 ft 343 kts 277°
2026-04-23 12:27 25.30177 55.19370 7333 ft 355 kts 278°
2026-04-23 12:28 25.30612 55.16677 8721 ft 359 kts 278°
2026-04-23 12:28 25.31060 55.13944 10090 ft 362 kts 278°
2026-04-23 12:28 25.31507 55.11217 11260 ft 368 kts 277°
2026-04-23 12:28 25.31974 55.08368 12465 ft 375 kts 277°
2026-04-23 12:29 25.32436 55.05548 13684 ft 381 kts 277°
2026-04-23 12:29 25.32908 55.02656 14508 ft 384 kts 277°
2026-04-23 12:29 25.33386 54.99734 14975 ft 388 kts 277°
2026-04-23 12:29 25.33874 54.96744 15824 ft 391 kts 278°
2026-04-23 12:30 25.34192 54.94787 16483 ft 390 kts 278°
2026-04-23 12:30 25.34858 54.90885 17773 ft 392 kts 281°
2026-04-23 12:30 25.35337 54.88906 18307 ft 395 kts 285°
2026-04-23 12:30 25.35608 54.87967 18544 ft 397 kts 286°
2026-04-23 12:31 25.37337 54.82065 20261 ft 409 kts 286°
2026-04-23 12:31 25.38211 54.79048 21202 ft 414 kts 285°
2026-04-23 12:31 25.39085 54.76000 22088 ft 419 kts 285°
2026-04-23 12:31 25.39968 54.72905 22896 ft 425 kts 285°
2026-04-23 12:32 25.40865 54.69772 23623 ft 430 kts 285°
2026-04-23 12:32 25.41782 54.66603 24283 ft 434 kts 285°
2026-04-23 12:32 25.42703 54.63423 24992 ft 436 kts 285°
2026-04-23 12:32 25.43630 54.60220 25679 ft 438 kts 286°
2026-04-23 12:33 25.44254 54.58091 26096 ft 440 kts 286°
2026-04-23 12:33 25.44573 54.57006 26304 ft 441 kts 286°
2026-04-23 12:33 25.46160 54.51621 27241 ft 446 kts 286°
2026-04-23 12:33 25.47126 54.48341 27780 ft 449 kts 286°
2026-04-23 12:34 25.48422 54.43930 28465 ft 452 kts 287°
2026-04-23 12:34 25.49063 54.41741 28784 ft 454 kts 287°
2026-04-23 12:34 25.50371 54.37276 29369 ft 457 kts 287°
2026-04-23 12:34 25.51020 54.35054 29634 ft 459 kts 287°
2026-04-23 12:35 25.52334 54.30557 30139 ft 460 kts 287°
2026-04-23 12:35 25.52986 54.28323 30443 ft 459 kts 287°
2026-04-23 12:35 25.53966 54.24967 30925 ft 457 kts 287°
2026-04-23 12:35 25.54944 54.21632 31389 ft 455 kts 287°
2026-04-23 12:36 25.55929 54.18303 31832 ft 454 kts 287°
2026-04-23 12:36 25.56911 54.14992 32219 ft 453 kts 287°
2026-04-23 12:36 25.57894 54.11671 32621 ft 453 kts 287°
2026-04-23 12:36 25.58542 54.09478 32874 ft 452 kts 287°
2026-04-23 12:37 25.59840 54.05055 33392 ft 451 kts 287°
2026-04-23 12:37 25.60784 54.01753 33772 ft 450 kts 287°
2026-04-23 12:37 25.61719 53.98444 34118 ft 448 kts 287°
2026-04-23 12:37 25.62645 53.95157 34488 ft 446 kts 287°
2026-04-23 12:38 25.63567 53.91887 34888 ft 443 kts 287°
2026-04-23 12:38 25.64483 53.88645 35271 ft 440 kts 287°
2026-04-23 12:38 25.65395 53.85420 35635 ft 437 kts 287°
2026-04-23 12:38 25.66303 53.82207 35856 ft 438 kts 286°
2026-04-23 12:39 25.68133 53.75726 35825 ft 439 kts 286°
2026-04-23 12:39 25.69929 53.69349 35824 ft 434 kts 286°
2026-04-23 12:40 25.71720 53.62970 35830 ft 433 kts 286°
2026-04-23 12:40 25.73506 53.56598 35838 ft 432 kts 286°
2026-04-23 12:41 25.75291 53.50222 35840 ft 433 kts 286°
2026-04-23 12:41 25.77091 53.43846 35840 ft 434 kts 286°
2026-04-23 12:42 25.78900 53.37451 35845 ft 435 kts 286°
2026-04-23 12:42 25.80708 53.31034 35848 ft 436 kts 286°
2026-04-23 12:43 25.82505 53.24643 35851 ft 437 kts 286°
2026-04-23 12:43 25.84383 53.18191 35855 ft 437 kts 289°
2026-04-23 12:44 25.86831 53.12042 35861 ft 438 kts 292°
2026-04-23 12:44 25.89363 53.05885 35846 ft 438 kts 292°
2026-04-23 12:45 25.91877 52.99711 35848 ft 438 kts 292°
2026-04-23 12:45 25.94381 52.93529 35870 ft 438 kts 292°
2026-04-23 12:46 25.96874 52.87360 35873 ft 437 kts 292°
2026-04-23 12:46 25.99374 52.81166 35879 ft 445 kts 292°
2026-04-23 12:47 26.01917 52.74860 35874 ft 455 kts 292°
2026-04-23 12:47 26.04721 52.68480 35877 ft 462 kts 295°
2026-04-23 12:48 26.07658 52.62110 35867 ft 464 kts 295°
2026-04-23 12:48 26.10556 52.55694 35878 ft 464 kts 294°
2026-04-23 12:49 26.13442 52.49284 35870 ft 463 kts 294°
2026-04-23 12:49 26.16340 52.42899 35883 ft 462 kts 294°
2026-04-23 12:50 26.19226 52.36525 35872 ft 460 kts 294°
2026-04-23 12:50 26.22102 52.30155 35880 ft 459 kts 294°
2026-04-23 12:51 26.24893 52.23758 35886 ft 459 kts 293°
2026-04-23 12:51 26.27652 52.17339 35881 ft 459 kts 293°
2026-04-23 12:52 26.30404 52.10965 35873 ft 459 kts 293°
2026-04-23 12:52 26.33171 52.04544 35880 ft 460 kts 293°
2026-04-23 12:53 26.35920 51.98106 35886 ft 460 kts 293°
2026-04-23 12:53 26.38485 51.91586 35886 ft 458 kts 288°
2026-04-23 12:54 26.40670 51.84903 35880 ft 458 kts 288°
2026-04-23 12:54 26.42908 51.78236 35885 ft 458 kts 289°
2026-04-23 12:55 26.45163 51.71584 35885 ft 458 kts 288°
2026-04-23 12:55 26.47414 51.64930 35890 ft 458 kts 289°
2026-04-23 12:56 26.49649 51.58285 35880 ft 457 kts 288°
2026-04-23 12:56 26.51851 51.51632 35881 ft 456 kts 288°
2026-04-23 12:57 26.54034 51.45031 35884 ft 456 kts 288°
2026-04-23 12:57 26.56229 51.38397 35879 ft 455 kts 288°
2026-04-23 12:58 26.58416 51.31778 35881 ft 454 kts 288°
2026-04-23 12:58 26.60601 51.25163 35887 ft 453 kts 288°
2026-04-23 12:59 26.62782 51.18565 35886 ft 452 kts 288°
2026-04-23 12:59 26.64955 51.11979 35898 ft 452 kts 288°
2026-04-23 13:00 26.67125 51.05386 35899 ft 451 kts 288°
2026-04-23 13:00 26.69283 50.98801 35902 ft 451 kts 288°
2026-04-23 13:01 26.70347 50.95497 35901 ft 451 kts 287°
2026-04-23 13:01 26.73512 50.85605 35913 ft 450 kts 287°
2026-04-23 13:02 26.75607 50.79059 35920 ft 450 kts 287°
2026-04-23 13:02 26.77730 50.72421 35917 ft 450 kts 287°
2026-04-23 13:03 26.80337 50.66041 35923 ft 453 kts 296°
2026-04-23 13:03 26.83716 50.60109 35917 ft 457 kts 303°
2026-04-23 13:04 26.87760 50.54607 35918 ft 458 kts 305°
2026-04-23 13:04 26.91825 50.49106 35918 ft 458 kts 306°
2026-04-23 13:05 26.96166 50.43842 35921 ft 460 kts 308°
2026-04-23 13:05 27.00580 50.38652 35926 ft 459 kts 308°
2026-04-23 13:06 27.07137 50.30822 35922 ft 459 kts 307°
2026-04-23 13:07 27.11488 50.25569 35924 ft 458 kts 307°
2026-04-23 13:07 27.15905 50.20409 35926 ft 461 kts 311°
2026-04-23 13:08 27.20968 50.15889 35935 ft 467 kts 317°
2026-04-23 13:10 27.41597 49.98662 35929 ft 464 kts 315°
2026-04-23 13:10 27.46661 49.94173 35925 ft 464 kts 315°
2026-04-23 13:11 27.51752 49.89676 35929 ft 464 kts 315°
2026-04-23 13:11 27.55121 49.86709 35927 ft 465 kts 315°
2026-04-23 13:12 27.62092 49.80568 35930 ft 466 kts 315°
2026-04-23 13:12 27.67208 49.76055 35930 ft 467 kts 315°
2026-04-23 13:13 27.72332 49.71527 35926 ft 468 kts 314°
2026-04-23 13:13 27.77470 49.66984 35934 ft 469 kts 314°
2026-04-23 13:14 27.82593 49.62423 35932 ft 469 kts 314°
2026-04-23 13:14 27.87675 49.57873 35929 ft 469 kts 314°
2026-04-23 13:15 27.92796 49.53286 35935 ft 470 kts 314°
2026-04-23 13:15 27.95359 49.50988 35927 ft 469 kts 314°